Year,Month,Day,Hour,Minute,Value (Times are PST for temperature in C)
2017,06,11,00,00,13.20
2017,06,11,00,01,13.10
2017,06,11,00,02,13.10
2017,06,11,00,03,13.10
2017,06,11,00,04,13.10
2017,06,11,00,05,13.10
2017,06,11,00,06,13.00
2017,06,11,00,07,13.00
2017,06,11,00,08,12.90
2017,06,11,00,09,12.90
2017,06,11,00,10,12.90
2017,06,11,00,11,12.80
2017,06,11,00,12,12.80
2017,06,11,00,13,12.80
2017,06,11,00,14,12.60
2017,06,11,00,15,12.50
2017,06,11,00,16,12.30
2017,06,11,00,17,12.20
2017,06,11,00,18,12.20
2017,06,11,00,19,12.10
2017,06,11,00,20,12.00
2017,06,11,00,21,11.90
2017,06,11,00,22,11.80
2017,06,11,00,23,11.80
2017,06,11,00,24,11.80
2017,06,11,00,25,11.70
2017,06,11,00,26,11.70
2017,06,11,00,27,11.60
2017,06,11,00,28,11.60
2017,06,11,00,29,11.50
2017,06,11,00,30,11.50
2017,06,11,00,31,11.40
2017,06,11,00,32,11.40
2017,06,11,00,33,11.40
2017,06,11,00,34,11.40
2017,06,11,00,35,11.30
2017,06,11,00,36,11.30
2017,06,11,00,37,11.20
2017,06,11,00,38,11.20
2017,06,11,00,39,11.20
2017,06,11,00,40,11.10
2017,06,11,00,41,11.10
2017,06,11,00,42,11.10
2017,06,11,00,43,11.00
2017,06,11,00,44,11.00
2017,06,11,00,45,11.00
2017,06,11,00,46,10.90
2017,06,11,00,47,10.90
2017,06,11,00,48,10.80
2017,06,11,00,49,10.80
2017,06,11,00,50,10.80
2017,06,11,00,51,10.80
2017,06,11,00,52,10.70
2017,06,11,00,53,10.70
2017,06,11,00,54,10.70
2017,06,11,00,55,10.70
2017,06,11,00,56,10.60
2017,06,11,00,57,10.60
2017,06,11,00,58,10.50
2017,06,11,00,59,10.50
2017,06,11,01,00,10.50
2017,06,11,01,01,10.40
2017,06,11,01,02,10.40
2017,06,11,01,03,10.30
2017,06,11,01,04,10.30
2017,06,11,01,05,10.20
2017,06,11,01,06,10.20
2017,06,11,01,07,10.20
2017,06,11,01,08,10.20
2017,06,11,01,09,10.10
2017,06,11,01,10,10.10
2017,06,11,01,11,10.10
2017,06,11,01,12,10.00
2017,06,11,01,13,10.00
2017,06,11,01,14,9.90
2017,06,11,01,15,9.90
2017,06,11,01,16,9.90
2017,06,11,01,17,9.80
2017,06,11,01,18,9.80
2017,06,11,01,19,9.80
2017,06,11,01,20,9.70
2017,06,11,01,21,9.70
2017,06,11,01,22,9.70
2017,06,11,01,23,9.70
2017,06,11,01,24,9.60
2017,06,11,01,25,9.60
2017,06,11,01,26,9.50
2017,06,11,01,27,9.50
2017,06,11,01,28,9.50
2017,06,11,01,29,9.40
2017,06,11,01,30,9.40
2017,06,11,01,31,9.40
2017,06,11,01,32,9.30
2017,06,11,01,33,9.30
2017,06,11,01,34,9.30
2017,06,11,01,35,9.30
2017,06,11,01,36,9.20
2017,06,11,01,37,9.20
2017,06,11,01,38,9.20
2017,06,11,01,39,9.20
2017,06,11,01,40,9.10
2017,06,11,01,41,9.10
2017,06,11,01,42,9.10
2017,06,11,01,43,9.10
2017,06,11,01,44,9.00
2017,06,11,01,45,9.00
2017,06,11,01,46,9.00
2017,06,11,01,47,8.90
2017,06,11,01,48,8.90
2017,06,11,01,49,8.90
2017,06,11,01,50,8.90
2017,06,11,01,51,8.90
2017,06,11,01,52,8.80
2017,06,11,01,53,8.80
2017,06,11,01,54,8.80
2017,06,11,01,55,8.80
2017,06,11,01,56,8.80
2017,06,11,01,57,8.70
2017,06,11,01,58,8.70
2017,06,11,01,59,8.70
2017,06,11,02,00,8.70
2017,06,11,02,01,8.70
2017,06,11,02,02,8.60
2017,06,11,02,03,8.60
2017,06,11,02,04,8.60
2017,06,11,02,05,8.60
2017,06,11,02,06,8.60
2017,06,11,02,07,8.50
2017,06,11,02,08,8.50
2017,06,11,02,09,8.50
2017,06,11,02,10,8.50
2017,06,11,02,11,8.40
2017,06,11,02,12,8.40
2017,06,11,02,13,8.40
2017,06,11,02,14,8.40
2017,06,11,02,15,8.40
2017,06,11,02,16,8.30
2017,06,11,02,17,8.30
2017,06,11,02,18,8.30
2017,06,11,02,19,8.30
2017,06,11,02,20,8.30
2017,06,11,02,21,8.30
2017,06,11,02,22,8.20
2017,06,11,02,23,8.20
2017,06,11,02,24,8.20
2017,06,11,02,25,8.20
2017,06,11,02,26,8.20
2017,06,11,02,27,8.10
2017,06,11,02,28,8.10
2017,06,11,02,29,8.10
2017,06,11,02,30,8.10
2017,06,11,02,31,8.10
2017,06,11,02,32,8.00
2017,06,11,02,33,8.00
2017,06,11,02,34,8.00
2017,06,11,02,35,8.00
2017,06,11,02,36,7.90
2017,06,11,02,37,7.90
2017,06,11,02,38,7.90
2017,06,11,02,39,7.90
2017,06,11,02,40,7.90
2017,06,11,02,41,7.90
2017,06,11,02,42,7.80
2017,06,11,02,43,7.80
2017,06,11,02,44,7.80
2017,06,11,02,45,7.80
2017,06,11,02,46,7.80
2017,06,11,02,47,7.80
2017,06,11,02,48,7.80
2017,06,11,02,49,7.70
2017,06,11,02,50,7.70
2017,06,11,02,51,7.70
2017,06,11,02,52,7.70
2017,06,11,02,53,7.70
2017,06,11,02,54,7.70
2017,06,11,02,55,7.70
2017,06,11,02,56,7.60
2017,06,11,02,57,7.60
2017,06,11,02,58,7.60
2017,06,11,02,59,7.60
2017,06,11,03,00,7.60
2017,06,11,03,01,7.50
2017,06,11,03,02,7.50
2017,06,11,03,03,7.50
2017,06,11,03,04,7.50
2017,06,11,03,05,7.50
2017,06,11,03,06,7.50
2017,06,11,03,07,7.50
2017,06,11,03,08,7.40
2017,06,11,03,09,7.40
2017,06,11,03,10,7.40
2017,06,11,03,11,7.40
2017,06,11,03,12,7.40
2017,06,11,03,13,7.40
2017,06,11,03,14,7.30
2017,06,11,03,15,7.30
2017,06,11,03,16,7.30
2017,06,11,03,17,7.30
2017,06,11,03,18,7.30
2017,06,11,03,19,7.30
2017,06,11,03,20,7.30
2017,06,11,03,21,7.30
2017,06,11,03,22,7.30
2017,06,11,03,23,7.20
2017,06,11,03,24,7.20
2017,06,11,03,25,7.20
2017,06,11,03,26,7.20
2017,06,11,03,27,7.20
2017,06,11,03,28,7.20
2017,06,11,03,29,7.20
2017,06,11,03,30,7.20
2017,06,11,03,31,7.20
2017,06,11,03,32,7.10
2017,06,11,03,33,7.10
2017,06,11,03,34,7.10
2017,06,11,03,35,7.10
2017,06,11,03,36,7.10
2017,06,11,03,37,7.10
2017,06,11,03,38,7.10
2017,06,11,03,39,7.10
2017,06,11,03,40,7.00
2017,06,11,03,41,7.00
2017,06,11,03,42,7.00
2017,06,11,03,43,7.00
2017,06,11,03,44,7.00
2017,06,11,03,45,6.90
2017,06,11,03,46,6.90
2017,06,11,03,47,6.90
2017,06,11,03,48,6.90
2017,06,11,03,49,6.90
2017,06,11,03,50,6.90
2017,06,11,03,51,6.90
2017,06,11,03,52,6.80
2017,06,11,03,53,6.80
2017,06,11,03,54,6.80
2017,06,11,03,55,6.80
2017,06,11,03,56,6.80
2017,06,11,03,57,6.80
2017,06,11,03,58,6.80
2017,06,11,03,59,6.70
2017,06,11,04,00,6.70
2017,06,11,04,01,6.70
2017,06,11,04,02,6.70
2017,06,11,04,03,6.70
2017,06,11,04,04,6.70
2017,06,11,04,05,6.70
2017,06,11,04,06,6.70
2017,06,11,04,07,6.60
2017,06,11,04,08,6.60
2017,06,11,04,09,6.60
2017,06,11,04,10,6.60
2017,06,11,04,11,6.60
2017,06,11,04,12,6.60
2017,06,11,04,13,6.50
2017,06,11,04,14,6.50
2017,06,11,04,15,6.50
2017,06,11,04,16,6.50
2017,06,11,04,17,6.50
2017,06,11,04,18,6.50
2017,06,11,04,19,6.50
2017,06,11,04,20,6.50
2017,06,11,04,21,6.50
2017,06,11,04,22,6.40
2017,06,11,04,23,6.40
2017,06,11,04,24,6.40
2017,06,11,04,25,6.40
2017,06,11,04,26,6.40
2017,06,11,04,27,6.40
2017,06,11,04,28,6.40
2017,06,11,04,29,6.40
2017,06,11,04,30,6.30
2017,06,11,04,31,6.30
2017,06,11,04,32,6.30
2017,06,11,04,33,6.30
2017,06,11,04,34,6.30
2017,06,11,04,35,6.30
2017,06,11,04,36,6.30
2017,06,11,04,37,6.30
2017,06,11,04,38,6.20
2017,06,11,04,39,6.30
2017,06,11,04,40,6.20
2017,06,11,04,41,6.20
2017,06,11,04,42,6.20
2017,06,11,04,43,6.20
2017,06,11,04,44,6.20
2017,06,11,04,45,6.20
2017,06,11,04,46,6.20
2017,06,11,04,47,6.20
2017,06,11,04,48,6.20
2017,06,11,04,49,6.10
2017,06,11,04,50,6.10
2017,06,11,04,51,6.10
2017,06,11,04,52,6.10
2017,06,11,04,53,6.10
2017,06,11,04,54,6.10
2017,06,11,04,55,6.10
2017,06,11,04,56,6.10
2017,06,11,04,57,6.10
2017,06,11,04,58,6.00
2017,06,11,04,59,6.00
2017,06,11,05,00,6.00
2017,06,11,05,01,6.00
2017,06,11,05,02,6.00
2017,06,11,05,03,6.00
2017,06,11,05,04,5.90
2017,06,11,05,05,5.90
2017,06,11,05,06,5.90
2017,06,11,05,07,5.90
2017,06,11,05,08,5.90
2017,06,11,05,09,5.90
2017,06,11,05,10,5.90
2017,06,11,05,11,5.90
2017,06,11,05,12,5.90
2017,06,11,05,13,5.90
2017,06,11,05,14,5.90
2017,06,11,05,15,5.90
2017,06,11,05,16,5.90
2017,06,11,05,17,5.90
2017,06,11,05,18,5.90
2017,06,11,05,19,5.90
2017,06,11,05,20,5.90
2017,06,11,05,21,5.80
2017,06,11,05,22,5.80
2017,06,11,05,23,5.80
2017,06,11,05,24,5.80
2017,06,11,05,25,5.80
2017,06,11,05,26,5.80
2017,06,11,05,27,5.80
2017,06,11,05,28,5.80
2017,06,11,05,29,5.80
2017,06,11,05,30,5.80
2017,06,11,05,31,5.80
2017,06,11,05,32,5.80
2017,06,11,05,33,5.80
2017,06,11,05,34,5.80
2017,06,11,05,35,5.80
2017,06,11,05,36,5.80
2017,06,11,05,37,5.80
2017,06,11,05,38,5.80
2017,06,11,05,39,5.80
2017,06,11,05,40,5.80
2017,06,11,05,41,5.80
2017,06,11,05,42,5.80
2017,06,11,05,43,5.80
2017,06,11,05,44,5.80
2017,06,11,05,45,5.80
2017,06,11,05,46,5.80
2017,06,11,05,47,5.80
2017,06,11,05,48,5.80
2017,06,11,05,49,5.80
2017,06,11,05,50,5.80
2017,06,11,05,51,5.80
2017,06,11,05,52,5.80
2017,06,11,05,53,5.80
2017,06,11,05,54,5.80
2017,06,11,05,55,5.80
2017,06,11,05,56,5.80
2017,06,11,05,57,5.80
2017,06,11,05,58,5.80
2017,06,11,05,59,5.80
2017,06,11,06,00,5.80
2017,06,11,06,01,5.80
2017,06,11,06,02,5.80
2017,06,11,06,03,5.80
2017,06,11,06,04,5.80
2017,06,11,06,05,5.80
2017,06,11,06,06,5.80
2017,06,11,06,07,5.80
2017,06,11,06,08,5.80
2017,06,11,06,09,5.80
2017,06,11,06,10,5.80
2017,06,11,06,11,5.80
2017,06,11,06,12,5.80
2017,06,11,06,13,5.80
2017,06,11,06,14,5.80
2017,06,11,06,15,5.80
2017,06,11,06,16,5.80
2017,06,11,06,17,5.80
2017,06,11,06,18,5.80
2017,06,11,06,19,5.80
2017,06,11,06,20,5.80
2017,06,11,06,21,5.80
2017,06,11,06,22,5.80
2017,06,11,06,23,5.80
2017,06,11,06,24,5.80
2017,06,11,06,25,5.80
2017,06,11,06,26,5.90
2017,06,11,06,27,5.90
2017,06,11,06,28,5.90
2017,06,11,06,29,5.90
2017,06,11,06,30,5.90
2017,06,11,06,31,5.90
2017,06,11,06,32,5.90
2017,06,11,06,33,5.90
2017,06,11,06,34,5.90
2017,06,11,06,35,5.90
2017,06,11,06,36,5.90
2017,06,11,06,37,6.00
2017,06,11,06,38,6.00
2017,06,11,06,39,6.00
2017,06,11,06,40,6.00
2017,06,11,06,41,6.00
2017,06,11,06,42,6.10
2017,06,11,06,43,6.10
2017,06,11,06,44,6.10
2017,06,11,06,45,6.10
2017,06,11,06,46,6.10
2017,06,11,06,47,6.10
2017,06,11,06,48,6.20
2017,06,11,06,49,6.20
2017,06,11,06,50,6.20
2017,06,11,06,51,6.30
2017,06,11,06,52,6.30
2017,06,11,06,53,6.30
2017,06,11,06,54,6.40
2017,06,11,06,55,6.50
2017,06,11,06,56,6.50
2017,06,11,06,57,6.60
2017,06,11,06,58,6.60
2017,06,11,06,59,6.70
2017,06,11,07,00,6.70
2017,06,11,07,01,6.70
2017,06,11,07,02,6.80
2017,06,11,07,03,6.80
2017,06,11,07,04,6.80
2017,06,11,07,05,6.90
2017,06,11,07,06,6.90
2017,06,11,07,07,7.00
2017,06,11,07,08,7.00
2017,06,11,07,09,7.00
2017,06,11,07,10,7.10
2017,06,11,07,11,7.10
2017,06,11,07,12,7.20
2017,06,11,07,13,7.20
2017,06,11,07,14,7.20
2017,06,11,07,15,7.30
2017,06,11,07,16,7.30
2017,06,11,07,17,7.40
2017,06,11,07,18,7.40
2017,06,11,07,19,7.50
2017,06,11,07,20,7.60
2017,06,11,07,21,7.70
2017,06,11,07,22,7.80
2017,06,11,07,23,7.80
2017,06,11,07,24,7.90
2017,06,11,07,25,8.00
2017,06,11,07,26,8.00
2017,06,11,07,27,8.10
2017,06,11,07,28,8.10
2017,06,11,07,29,8.10
2017,06,11,07,30,8.10
2017,06,11,07,31,8.10
2017,06,11,07,32,8.20
2017,06,11,07,33,8.20
2017,06,11,07,34,8.30
2017,06,11,07,35,8.30
2017,06,11,07,36,8.30
2017,06,11,07,37,8.30
2017,06,11,07,38,8.40
2017,06,11,07,39,8.40
2017,06,11,07,40,8.50
2017,06,11,07,41,8.50
2017,06,11,07,42,8.60
2017,06,11,07,43,8.60
2017,06,11,07,44,8.60
2017,06,11,07,45,8.70
2017,06,11,07,46,8.70
2017,06,11,07,47,8.70
2017,06,11,07,48,8.80
2017,06,11,07,49,8.80
2017,06,11,07,50,8.90
2017,06,11,07,51,8.90
2017,06,11,07,52,9.00
2017,06,11,07,53,9.00
2017,06,11,07,54,9.10
2017,06,11,07,55,9.10
2017,06,11,07,56,9.20
2017,06,11,07,57,9.20
2017,06,11,07,58,9.20
2017,06,11,07,59,9.20
2017,06,11,08,00,9.30
2017,06,11,08,01,9.30
2017,06,11,08,02,9.30
2017,06,11,08,03,9.30
2017,06,11,08,04,9.30
2017,06,11,08,05,9.20
2017,06,11,08,06,9.20
2017,06,11,08,07,9.20
2017,06,11,08,08,9.20
2017,06,11,08,09,9.20
2017,06,11,08,10,9.20
2017,06,11,08,11,9.20
2017,06,11,08,12,9.20
2017,06,11,08,13,9.20
2017,06,11,08,14,9.30
2017,06,11,08,15,9.30
2017,06,11,08,16,9.30
2017,06,11,08,17,9.40
2017,06,11,08,18,9.40
2017,06,11,08,19,9.50
2017,06,11,08,20,9.60
2017,06,11,08,21,9.60
2017,06,11,08,22,9.70
2017,06,11,08,23,9.70
2017,06,11,08,24,9.70
2017,06,11,08,25,9.70
2017,06,11,08,26,9.70
2017,06,11,08,27,9.70
2017,06,11,08,28,9.70
2017,06,11,08,29,9.70
2017,06,11,08,30,9.70
2017,06,11,08,31,9.80
2017,06,11,08,32,9.80
2017,06,11,08,33,9.80
2017,06,11,08,34,9.90
2017,06,11,08,35,9.90
2017,06,11,08,36,10.00
2017,06,11,08,37,10.00
2017,06,11,08,38,10.10
2017,06,11,08,39,10.20
2017,06,11,08,40,10.20
2017,06,11,08,41,10.30
2017,06,11,08,42,10.30
2017,06,11,08,43,10.40
2017,06,11,08,44,10.50
2017,06,11,08,45,10.60
2017,06,11,08,46,10.60
2017,06,11,08,47,10.70
2017,06,11,08,48,10.70
2017,06,11,08,49,10.80
2017,06,11,08,50,10.90
2017,06,11,08,51,10.90
2017,06,11,08,52,11.00
2017,06,11,08,53,11.00
2017,06,11,08,54,11.00
2017,06,11,08,55,11.10
2017,06,11,08,56,11.10
2017,06,11,08,57,11.20
2017,06,11,08,58,11.30
2017,06,11,08,59,11.30
2017,06,11,09,00,11.20
2017,06,11,09,01,11.20
2017,06,11,09,02,11.30
2017,06,11,09,03,11.30
2017,06,11,09,04,11.40
2017,06,11,09,05,11.40
2017,06,11,09,06,11.50
2017,06,11,09,07,11.50
2017,06,11,09,08,11.50
2017,06,11,09,09,11.60
2017,06,11,09,10,11.60
2017,06,11,09,11,11.70
2017,06,11,09,12,11.70
2017,06,11,09,13,11.70
2017,06,11,09,14,11.70
2017,06,11,09,15,11.70
2017,06,11,09,16,11.80
2017,06,11,09,17,11.80
2017,06,11,09,18,11.80
2017,06,11,09,19,11.90
2017,06,11,09,20,12.00
2017,06,11,09,21,12.10
2017,06,11,09,22,12.10
2017,06,11,09,23,12.20
2017,06,11,09,24,12.30
2017,06,11,09,25,12.40
2017,06,11,09,26,12.50
2017,06,11,09,27,12.50
2017,06,11,09,28,12.60
2017,06,11,09,29,12.70
2017,06,11,09,30,12.70
2017,06,11,09,31,12.80
2017,06,11,09,32,12.80
2017,06,11,09,33,12.80
2017,06,11,09,34,12.90
2017,06,11,09,35,12.90
2017,06,11,09,36,12.90
2017,06,11,09,37,12.90
2017,06,11,09,38,13.00
2017,06,11,09,39,12.90
2017,06,11,09,40,12.90
2017,06,11,09,41,13.00
2017,06,11,09,42,13.00
2017,06,11,09,43,13.00
2017,06,11,09,44,13.10
2017,06,11,09,45,13.20
2017,06,11,09,46,13.20
2017,06,11,09,47,13.20
2017,06,11,09,48,13.20
2017,06,11,09,49,13.30
2017,06,11,09,50,13.30
2017,06,11,09,51,13.40
2017,06,11,09,52,13.50
2017,06,11,09,53,13.60
2017,06,11,09,54,13.60
2017,06,11,09,55,13.60
2017,06,11,09,56,13.60
2017,06,11,09,57,13.60
2017,06,11,09,58,13.60
2017,06,11,09,59,13.60
2017,06,11,10,00,13.70
2017,06,11,10,01,13.70
2017,06,11,10,02,13.70
2017,06,11,10,03,13.70
2017,06,11,10,04,13.80
2017,06,11,10,05,13.80
2017,06,11,10,06,13.90
2017,06,11,10,07,14.00
2017,06,11,10,08,14.00
2017,06,11,10,09,14.00
2017,06,11,10,10,14.00
2017,06,11,10,11,14.00
2017,06,11,10,12,14.00
2017,06,11,10,13,14.00
2017,06,11,10,14,14.10
2017,06,11,10,15,14.20
2017,06,11,10,16,14.20
2017,06,11,10,17,14.20
2017,06,11,10,18,14.30
2017,06,11,10,19,14.30
2017,06,11,10,20,14.30
2017,06,11,10,21,14.30
2017,06,11,10,22,14.30
2017,06,11,10,23,14.40
2017,06,11,10,24,14.50
2017,06,11,10,25,14.60
2017,06,11,10,26,14.70
2017,06,11,10,27,14.70
2017,06,11,10,28,14.70
2017,06,11,10,29,14.80
2017,06,11,10,30,14.80
2017,06,11,10,31,14.90
2017,06,11,10,32,15.00
2017,06,11,10,33,15.10
2017,06,11,10,34,15.20
2017,06,11,10,35,15.30
2017,06,11,10,36,15.40
2017,06,11,10,37,15.50
2017,06,11,10,38,15.60
2017,06,11,10,39,15.50
2017,06,11,10,40,15.50
2017,06,11,10,41,15.40
2017,06,11,10,42,15.30
2017,06,11,10,43,15.30
2017,06,11,10,44,15.30
2017,06,11,10,45,15.40
2017,06,11,10,46,15.40
2017,06,11,10,47,15.50
2017,06,11,10,48,15.60
2017,06,11,10,49,15.70
2017,06,11,10,50,15.60
2017,06,11,10,51,15.60
2017,06,11,10,52,15.70
2017,06,11,10,53,15.80
2017,06,11,10,54,15.80
2017,06,11,10,55,15.80
2017,06,11,10,56,15.80
2017,06,11,10,57,15.80
2017,06,11,10,58,15.90
2017,06,11,10,59,15.90
2017,06,11,11,00,15.90
2017,06,11,11,01,15.90
2017,06,11,11,02,15.90
2017,06,11,11,03,15.90
2017,06,11,11,04,16.00
2017,06,11,11,05,16.10
2017,06,11,11,06,16.20
2017,06,11,11,07,16.30
2017,06,11,11,08,16.30
2017,06,11,11,09,16.40
2017,06,11,11,10,16.40
2017,06,11,11,11,16.50
2017,06,11,11,12,16.60
2017,06,11,11,13,16.60
2017,06,11,11,14,16.60
2017,06,11,11,15,16.70
2017,06,11,11,16,16.80
2017,06,11,11,17,16.90
2017,06,11,11,18,16.90
2017,06,11,11,19,16.90
2017,06,11,11,20,16.90
2017,06,11,11,21,16.80
2017,06,11,11,22,16.80
2017,06,11,11,23,16.80
2017,06,11,11,24,16.80
2017,06,11,11,25,16.80
2017,06,11,11,26,16.80
2017,06,11,11,27,16.90
2017,06,11,11,28,16.90
2017,06,11,11,29,17.00
2017,06,11,11,30,17.10
2017,06,11,11,31,17.20
2017,06,11,11,32,17.30
2017,06,11,11,33,17.30
2017,06,11,11,34,17.30
2017,06,11,11,35,17.40
2017,06,11,11,36,17.50
2017,06,11,11,37,17.50
2017,06,11,11,38,17.50
2017,06,11,11,39,17.50
2017,06,11,11,40,17.50
2017,06,11,11,41,17.50
2017,06,11,11,42,17.50
2017,06,11,11,43,17.60
2017,06,11,11,44,17.60
2017,06,11,11,45,17.60
2017,06,11,11,46,17.60
2017,06,11,11,47,17.70
2017,06,11,11,48,17.70
2017,06,11,11,49,17.80
2017,06,11,11,50,17.80
2017,06,11,11,51,17.80
2017,06,11,11,52,17.80
2017,06,11,11,53,17.90
2017,06,11,11,54,17.90
2017,06,11,11,55,17.90
2017,06,11,11,56,17.90
2017,06,11,11,57,17.90
2017,06,11,11,58,17.80
2017,06,11,11,59,17.80
2017,06,11,12,00,17.90
2017,06,11,12,01,17.90
2017,06,11,12,02,17.90
2017,06,11,12,03,17.90
2017,06,11,12,04,18.00
2017,06,11,12,05,18.10
2017,06,11,12,06,18.20
2017,06,11,12,07,18.30
2017,06,11,12,08,18.50
2017,06,11,12,09,18.70
2017,06,11,12,10,18.80
2017,06,11,12,11,18.90
2017,06,11,12,12,19.00
2017,06,11,12,13,19.10
2017,06,11,12,14,19.10
2017,06,11,12,15,19.10
2017,06,11,12,16,19.10
2017,06,11,12,17,19.10
2017,06,11,12,18,19.10
2017,06,11,12,19,19.00
2017,06,11,12,20,19.00
2017,06,11,12,21,19.00
2017,06,11,12,22,19.00
2017,06,11,12,23,18.90
2017,06,11,12,24,19.00
2017,06,11,12,25,19.10
2017,06,11,12,26,19.10
2017,06,11,12,27,19.20
2017,06,11,12,28,19.30
2017,06,11,12,29,19.40
2017,06,11,12,30,19.40
2017,06,11,12,31,19.40
2017,06,11,12,32,19.40
2017,06,11,12,33,19.40
2017,06,11,12,34,19.50
2017,06,11,12,35,19.70
2017,06,11,12,36,19.80
2017,06,11,12,37,19.80
2017,06,11,12,38,19.80
2017,06,11,12,39,19.80
2017,06,11,12,40,19.90
2017,06,11,12,41,20.00
2017,06,11,12,42,20.00
2017,06,11,12,43,20.00
2017,06,11,12,44,20.00
2017,06,11,12,45,20.00
2017,06,11,12,46,20.10
2017,06,11,12,47,20.10
2017,06,11,12,48,20.10
2017,06,11,12,49,20.10
2017,06,11,12,50,20.10
2017,06,11,12,51,20.10
2017,06,11,12,52,20.10
2017,06,11,12,53,20.20
2017,06,11,12,54,20.20
2017,06,11,12,55,20.20
2017,06,11,12,56,20.30
2017,06,11,12,57,20.40
2017,06,11,12,58,20.60
2017,06,11,12,59,20.70
2017,06,11,13,00,20.80
2017,06,11,13,01,20.90
2017,06,11,13,02,21.00
2017,06,11,13,03,21.10
2017,06,11,13,04,21.00
2017,06,11,13,05,20.90
2017,06,11,13,06,20.80
2017,06,11,13,07,20.70
2017,06,11,13,08,20.70
2017,06,11,13,09,20.60
2017,06,11,13,10,20.60
2017,06,11,13,11,20.40
2017,06,11,13,12,20.30
2017,06,11,13,13,20.20
2017,06,11,13,14,20.20
2017,06,11,13,15,20.10
2017,06,11,13,16,20.10
2017,06,11,13,17,20.10
2017,06,11,13,18,20.20
2017,06,11,13,19,20.30
2017,06,11,13,20,20.20
2017,06,11,13,21,20.20
2017,06,11,13,22,20.20
2017,06,11,13,23,20.20
2017,06,11,13,24,20.20
2017,06,11,13,25,20.20
2017,06,11,13,26,20.20
2017,06,11,13,27,20.10
2017,06,11,13,28,20.10
2017,06,11,13,29,20.10
2017,06,11,13,30,20.20
2017,06,11,13,31,20.40
2017,06,11,13,32,20.50
2017,06,11,13,33,20.70
2017,06,11,13,34,20.80
2017,06,11,13,35,20.80
2017,06,11,13,36,20.90
2017,06,11,13,37,20.90
2017,06,11,13,38,21.00
2017,06,11,13,39,21.10
2017,06,11,13,40,21.20
2017,06,11,13,41,21.30
2017,06,11,13,42,21.40
2017,06,11,13,43,21.40
2017,06,11,13,44,21.40
2017,06,11,13,45,21.40
2017,06,11,13,46,21.30
2017,06,11,13,47,21.30
2017,06,11,13,48,21.30
2017,06,11,13,49,21.30
2017,06,11,13,50,21.20
2017,06,11,13,51,21.10
2017,06,11,13,52,21.00
2017,06,11,13,53,21.00
2017,06,11,13,54,21.10
2017,06,11,13,55,21.10
2017,06,11,13,56,21.10
2017,06,11,13,57,21.00
2017,06,11,13,58,21.00
2017,06,11,13,59,21.00
2017,06,11,14,00,20.90
2017,06,11,14,01,20.90
2017,06,11,14,02,20.90
2017,06,11,14,03,21.00
2017,06,11,14,04,21.10
2017,06,11,14,05,21.10
2017,06,11,14,06,21.10
2017,06,11,14,07,21.20
2017,06,11,14,08,21.20
2017,06,11,14,09,21.20
2017,06,11,14,10,21.20
2017,06,11,14,11,21.10
2017,06,11,14,12,21.00
2017,06,11,14,13,21.00
2017,06,11,14,14,21.00
2017,06,11,14,15,20.90
2017,06,11,14,16,20.90
2017,06,11,14,17,20.90
2017,06,11,14,18,20.80
2017,06,11,14,19,20.80
2017,06,11,14,20,20.80
2017,06,11,14,21,20.90
2017,06,11,14,22,20.90
2017,06,11,14,23,21.00
2017,06,11,14,24,21.00
2017,06,11,14,25,21.10
2017,06,11,14,26,21.10
2017,06,11,14,27,21.10
2017,06,11,14,28,21.20
2017,06,11,14,29,21.30
2017,06,11,14,30,21.40
2017,06,11,14,31,21.40
2017,06,11,14,32,21.30
2017,06,11,14,33,21.20
2017,06,11,14,34,21.20
2017,06,11,14,35,21.20
2017,06,11,14,36,21.30
2017,06,11,14,37,21.30
2017,06,11,14,38,21.40
2017,06,11,14,39,21.50
2017,06,11,14,40,21.60
2017,06,11,14,41,21.60
2017,06,11,14,42,21.70
2017,06,11,14,43,21.60
2017,06,11,14,44,21.60
2017,06,11,14,45,21.50
2017,06,11,14,46,21.40
2017,06,11,14,47,21.40
2017,06,11,14,48,21.40
2017,06,11,14,49,21.30
2017,06,11,14,50,21.40
2017,06,11,14,51,21.40
2017,06,11,14,52,21.40
2017,06,11,14,53,21.50
2017,06,11,14,54,21.40
2017,06,11,14,55,21.40
2017,06,11,14,56,21.30
2017,06,11,14,57,21.30
2017,06,11,14,58,21.30
2017,06,11,14,59,21.30
2017,06,11,15,00,21.40
2017,06,11,15,01,21.40
2017,06,11,15,02,21.40
2017,06,11,15,03,21.40
2017,06,11,15,04,21.40
2017,06,11,15,05,21.40
2017,06,11,15,06,21.40
2017,06,11,15,07,21.30
2017,06,11,15,08,21.20
2017,06,11,15,09,21.10
2017,06,11,15,10,21.00
2017,06,11,15,11,21.00
2017,06,11,15,12,20.90
2017,06,11,15,13,20.80
2017,06,11,15,14,20.80
2017,06,11,15,15,20.90
2017,06,11,15,16,20.90
2017,06,11,15,17,21.00
2017,06,11,15,18,21.10
2017,06,11,15,19,21.20
2017,06,11,15,20,21.30
2017,06,11,15,21,21.40
2017,06,11,15,22,21.40
2017,06,11,15,23,21.40
2017,06,11,15,24,21.50
2017,06,11,15,25,21.60
2017,06,11,15,26,21.60
2017,06,11,15,27,21.70
2017,06,11,15,28,21.80
2017,06,11,15,29,22.00
2017,06,11,15,30,22.00
2017,06,11,15,31,21.90
2017,06,11,15,32,21.80
2017,06,11,15,33,21.70
2017,06,11,15,34,21.70
2017,06,11,15,35,21.70
2017,06,11,15,36,21.70
2017,06,11,15,37,21.70
2017,06,11,15,38,21.70
2017,06,11,15,39,21.70
2017,06,11,15,40,21.60
2017,06,11,15,41,21.50
2017,06,11,15,42,21.40
2017,06,11,15,43,21.40
2017,06,11,15,44,21.50
2017,06,11,15,45,21.50
2017,06,11,15,46,21.40
2017,06,11,15,47,21.50
2017,06,11,15,48,21.70
2017,06,11,15,49,21.70
2017,06,11,15,50,21.70
2017,06,11,15,51,21.70
2017,06,11,15,52,21.60
2017,06,11,15,53,21.60
2017,06,11,15,54,21.50
2017,06,11,15,55,21.40
2017,06,11,15,56,21.40
2017,06,11,15,57,21.50
2017,06,11,15,58,21.50
2017,06,11,15,59,21.40
2017,06,11,16,00,21.40
2017,06,11,16,01,21.30
2017,06,11,16,02,21.20
2017,06,11,16,03,21.20
2017,06,11,16,04,21.10
2017,06,11,16,05,21.10
2017,06,11,16,06,21.00
2017,06,11,16,07,20.90
2017,06,11,16,08,20.80
2017,06,11,16,09,20.70
2017,06,11,16,10,20.70
2017,06,11,16,11,20.70
2017,06,11,16,12,20.70
2017,06,11,16,13,20.60
2017,06,11,16,14,20.60
2017,06,11,16,15,20.50
2017,06,11,16,16,20.50
2017,06,11,16,17,20.40
2017,06,11,16,18,20.40
2017,06,11,16,19,20.40
2017,06,11,16,20,20.40
2017,06,11,16,21,20.40
2017,06,11,16,22,20.40
2017,06,11,16,23,20.40
2017,06,11,16,24,20.40
2017,06,11,16,25,20.50
2017,06,11,16,26,20.50
2017,06,11,16,27,20.50
2017,06,11,16,28,20.50
2017,06,11,16,29,20.60
2017,06,11,16,30,20.60
2017,06,11,16,31,20.60
2017,06,11,16,32,20.60
2017,06,11,16,33,20.60
2017,06,11,16,34,20.50
2017,06,11,16,35,20.50
2017,06,11,16,36,20.50
2017,06,11,16,37,20.50
2017,06,11,16,38,20.50
2017,06,11,16,39,20.60
2017,06,11,16,40,20.60
2017,06,11,16,41,20.60
2017,06,11,16,42,20.60
2017,06,11,16,43,20.60
2017,06,11,16,44,20.50
2017,06,11,16,45,20.50
2017,06,11,16,46,20.40
2017,06,11,16,47,20.40
2017,06,11,16,48,20.30
2017,06,11,16,49,20.30
2017,06,11,16,50,20.30
2017,06,11,16,51,20.30
2017,06,11,16,52,20.30
2017,06,11,16,53,20.30
2017,06,11,16,54,20.30
2017,06,11,16,55,20.30
2017,06,11,16,56,20.30
2017,06,11,16,57,20.30
2017,06,11,16,58,20.30
2017,06,11,16,59,20.30
2017,06,11,17,00,20.30
2017,06,11,17,01,20.30
2017,06,11,17,02,20.30
2017,06,11,17,03,20.20
2017,06,11,17,04,20.20
2017,06,11,17,05,20.20
2017,06,11,17,06,20.10
2017,06,11,17,07,20.10
2017,06,11,17,08,20.10
2017,06,11,17,09,20.10
2017,06,11,17,10,20.10
2017,06,11,17,11,20.10
2017,06,11,17,12,20.10
2017,06,11,17,13,20.10
2017,06,11,17,14,20.00
2017,06,11,17,15,20.00
2017,06,11,17,16,20.00
2017,06,11,17,17,20.00
2017,06,11,17,18,20.00
2017,06,11,17,19,20.00
2017,06,11,17,20,19.90
2017,06,11,17,21,19.90
2017,06,11,17,22,19.90
2017,06,11,17,23,19.90
2017,06,11,17,24,19.90
2017,06,11,17,25,19.90
2017,06,11,17,26,19.90
2017,06,11,17,27,19.90
2017,06,11,17,28,19.90
2017,06,11,17,29,19.90
2017,06,11,17,30,19.90
2017,06,11,17,31,19.90
2017,06,11,17,32,19.90
2017,06,11,17,33,19.90
2017,06,11,17,34,19.90
2017,06,11,17,35,19.90
2017,06,11,17,36,19.80
2017,06,11,17,37,19.80
2017,06,11,17,38,19.80